"Time","Temp","Dewpoint","Humidity","Pressure","Direction","Speed","Gust","Precip","PrecipRate"
"00:04:57","19.3","14.2","80.3","30.59","9","0","0","0.00","0.00"
"00:09:57","19.2","14.3","80.8","30.59","9","0.1","2","0.00","0.00"
"00:14:57","19.1","14.2","80.8","30.59","9","0.6","2.3","0.00","0.00"
"00:19:59","19.1","13.9","80","30.59","9","0","1.2","0.00","0.00"
"00:24:58","19.1","13.9","80","30.59","9","0","0","0.00","0.00"
"00:29:56","19","14","80.5","30.59","9","0","0","0.00","0.00"
"00:34:59","18.9","14","81","30.59","9","0","0","0.00","0.00"
"00:39:58","18.8","13.9","81","30.59","9","0","0","0.00","0.00"
"00:44:59","18.8","13.9","81","30.59","9","0","0","0.00","0.00"
"00:49:57","18.8","13.9","81","30.59","9","0","0","0.00","0.00"
"00:54:56","18.8","13.9","81","30.59","9","0","0","0.00","0.00"
"00:59:58","18.7","14","81.7","30.59","9","0","0","0.00","0.00"
"01:04:56","18.6","14","82","30.59","9","0","0","0.00","0.00"
"01:09:58","18.6","14","82","30.59","9","0","0","0.00","0.00"
"01:14:57","18.6","14","82","30.59","9","0","0","0.00","0.00"
"01:19:56","18.5","13.9","82","30.58","9","0","0","0.00","0.00"
"01:24:59","18.4","13.9","82.1","30.58","9","0","0","0.00","0.00"
"01:29:58","18.3","14","83","30.58","9","0","0","0.00","0.00"
"01:34:56","18.2","13.9","83","30.58","9","0","0","0.00","0.00"
"01:39:59","18.2","14.1","83.9","30.58","9","0","0","0.00","0.00"
"01:44:57","18.1","14.1","84","30.58","9","0","0","0.00","0.00"
"01:49:56","17.9","13.9","84","30.58","9","0","0","0.00","0.00"
"01:54:59","17.8","13.8","84","30.58","9","0","0","0.00","0.00"
"01:59:58","17.7","13.8","84.3","30.59","9","0","0","0.00","0.00"
"02:04:51","17.7","14","85","30.59","9","0","0","0.00","0.00"
"02:09:57","17.6","13.9","85","30.59","9","0","0","0.00","0.00"
"02:14:56","17.5","13.8","85.2","30.59","9","0","0","0.00","0.00"
"02:19:59","17.5","14","86","30.59","9","0","0","0.00","0.00"
"02:24:57","17.5","14","86","30.59","9","0","0","0.00","0.00"
"02:29:56","17.5","14","86","30.59","9","0","0","0.00","0.00"
"02:34:58","17.4","13.9","86","30.58","9","0","0","0.00","0.00"
"02:39:57","17.3","13.8","86","30.58","9","0","0","0.00","0.00"
"02:44:56","17.3","14","86.6","30.58","9","0","0","0.00","0.00"
"02:49:58","17.3","13.9","86.3","30.58","9","0","0","0.00","0.00"
"02:54:57","17.2","13.7","86","30.58","9","0","0","0.00","0.00"
"02:59:56","17","13.5","86","30.59","9","0","0","0.00","0.00"
"03:04:58","16.9","13.6","86.6","30.59","9","0","0","0.00","0.00"
"03:09:56","16.9","13.7","87","30.59","9","0","0","0.00","0.00"
"03:14:59","16.9","13.7","87","30.59","9","0","0","0.00","0.00"
"03:19:58","16.8","13.6","87","30.59","9","0","0","0.00","0.00"
"03:24:57","16.8","13.7","87.2","30.59","9","0","0","0.00","0.00"
"03:29:56","16.7","13.7","87.7","30.59","9","0","0","0.00","0.00"
"03:34:58","16.7","13.8","88","30.59","9","0","0","0.00","0.00"
"03:39:57","16.6","13.7","88","30.59","9","0","0","0.00","0.00"
"03:44:56","16.4","13.5","88","30.59","9","0","0","0.00","0.00"
"03:49:58","16.4","13.5","88","30.59","9","0","0","0.00","0.00"
"03:54:57","16.4","13.5","88","30.59","9","0","0","0.00","0.00"
"03:59:59","16.3","13.4","88","30.59","9","0","0","0.00","0.00"
"04:04:57","16.3","13.4","88","30.59","9","0","0","0.00","0.00"
"04:09:59","16.2","13.3","88","30.59","9","0","0","0.00","0.00"
"04:14:58","16.1","13.2","88","30.59","9","0","0","0.00","0.00"
"04:19:56","15.9","13","88.1","30.59","9","0","0","0.00","0.00"
"04:24:59","15.9","13","88.3","30.59","9","0","0","0.00","0.00"
"04:29:58","15.9","13.2","88.9","30.59","9","0","0","0.00","0.00"
"04:34:56","15.9","13.1","88.3","30.59","9","0","0","0.00","0.00"
"04:39:59","15.8","13","88.3","30.59","9","0","0","0.00","0.00"
"04:44:58","15.8","12.9","88.2","30.60","9","0","0","0.00","0.00"
"04:49:56","15.7","12.9","88.3","30.60","9","0","0","0.00","0.00"
"04:54:59","15.7","13","89","30.60","9","0","0","0.00","0.00"
"04:59:58","15.7","13","89","30.60","9","0","0","0.00","0.00"
"05:04:56","15.8","13.1","89","30.60","9","0","0","0.00","0.00"
"05:09:58","15.9","13","88","30.60","9","0","0","0.00","0.00"
"05:14:57","15.9","13","88","30.61","9","0","0","0.00","0.00"
"05:19:59","15.8","12.9","88","30.61","9","0","0","0.00","0.00"
"05:24:58","15.8","12.9","88","30.61","9","0","0","0.00","0.00"
"05:29:56","15.8","12.9","88","30.61","9","0","0","0.00","0.00"
"05:34:59","15.8","12.9","88","30.61","9","0","0","0.00","0.00"
"05:39:58","15.6","12.7","88","30.61","9","0","0","0.00","0.00"
"05:44:56","15.6","12.7","88","30.61","9","0","0","0.00","0.00"
"05:49:59","15.5","12.6","88","30.61","9","0","0","0.00","0.00"
"05:54:58","15.4","12.5","88","30.61","9","0","0","0.00","0.00"
"05:59:57","15.4","12.5","88","30.62","9","0","0","0.00","0.00"
"06:04:58","15.3","12.4","88.2","30.62","9","0","0","0.00","0.00"
"06:09:58","15.3","12.6","89","30.62","9","0","0","0.00","0.00"
"06:14:56","15.3","12.6","89","30.62","9","0","0","0.00","0.00"
"06:19:59","15.3","12.6","89","30.62","0","0","0","0.00","0.00"
"06:24:57","15.3","12.6","89","30.62","0","0","0","0.00","0.00"
"06:29:56","15.3","12.6","89","30.62","0","0","0","0.00","0.00"
"06:34:59","15.1","12.4","89","30.62","9","0","0","0.00","0.00"
"06:39:57","15","12.3","89","30.62","9","0","0","0.00","0.00"
"06:44:56","15","12.3","89","30.63","9","0","0","0.00","0.00"
"06:49:59","15","12.3","89","30.63","9","0","0","0.00","0.00"
"06:54:58","15","12.3","89","30.63","9","0","0","0.00","0.00"
"06:59:56","15","12.3","89","30.63","9","0","0","0.00","0.00"
"07:04:58","14.9","12.2","89","30.63","9","0","0","0.00","0.00"
"07:09:56","14.8","12.1","89","30.63","9","0","0","0.00","0.00"
"07:14:59","14.8","12.1","89","30.63","9","0","0","0.00","0.00"
"07:19:58","14.8","12.3","89.7","30.63","9","0","0","0.00","0.00"
"07:24:57","14.8","12.4","90","30.63","9","0","0","0.00","0.00"
"07:29:56","14.9","12.5","90","30.64","9","0","0","0.00","0.00"
"07:34:58","14.9","12.5","90","30.64","9","0","0","0.00","0.00"
"07:39:57","14.9","12.5","90","30.64","9","0","0","0.00","0.00"
"07:44:56","14.9","12.5","90","30.64","9","0","0","0.00","0.00"
"07:49:58","15","12.6","90","30.64","9","0","0","0.00","0.00"
"07:54:57","15.1","12.7","90","30.64","9","0","0","0.00","0.00"
"07:59:59","15.3","12.9","90.2","30.64","9","0","0","0.00","0.00"
"08:04:57","15.5","13.1","90.3","30.64","9","0","0","0.00","0.00"
"08:09:59","15.8","13.6","91","30.64","9","0","0","0.00","0.00"
"08:14:58","16.1","13.9","91","30.64","9","0","0","0.00","0.00"
"08:19:56","16.7","14.5","91","30.64","9","0","0","0.00","0.00"
"08:24:57","17.5","15.3","90.8","30.64","9","0","0","0.00","0.00"
"08:29:59","18.4","16","90","30.64","9","0","0","0.00","0.00"
"08:34:57","19.4","16.9","89.5","30.64","9","0","0","0.00","0.00"
"08:39:59","20.6","17.6","88","30.64","9","0","0","0.00","0.00"
"08:44:57","21.5","18","85.9","30.64","9","0","0","0.00","0.00"
"08:49:59","22.1","18","83.8","30.64","9","0","0","0.00","0.00"
"08:54:56","22.7","18.1","82.3","30.64","9","0","2","0.00","0.00"
"08:59:58","23.5","18.1","79.5","30.64","9","0.8","2.3","0.00","0.00"
"09:04:59","24.4","18.3","77.5","30.64","9","0.8","3.5","0.00","0.00"
"09:09:57","25.2","18.7","76","30.64","106","1.5","3.5","0.00","0.00"
"09:14:56","25.6","18.3","73.4","30.64","114","2.1","5","0.00","0.00"
"09:19:57","26.1","18.5","72.8","30.63","129","2","6","0.00","0.00"
"09:24:59","26.5","18.3","70.7","30.63","138","2.8","6","0.00","0.00"
"09:29:56","26.6","18.2","70.3","30.64","155","3","7","0.00","0.00"
"09:34:57","26.7","18","69.5","30.64","125","3.5","6.9","0.00","0.00"
"09:39:59","26.9","18.1","69","30.64","115","3.1","7","0.00","0.00"
"09:44:56","27.2","18.2","68.7","30.65","135","2.4","5.8","0.00","0.00"
"09:49:59","27.4","18.9","69.8","30.65","166","2.3","6","0.00","0.00"
"09:54:56","27.6","18.5","68.3","30.65","153","3.2","6","0.00","0.00"
"09:59:58","27.7","18.1","67","30.65","173","3.4","10.4","0.00","0.00"
"10:04:58","27.8","18.7","68.5","30.64","165","2.8","6","0.00","0.00"
"10:09:56","28.1","18.8","68","30.64","132","2.9","6","0.00","0.00"
"10:14:58","28.3","18.4","65.9","30.64","139","3.4","7","0.00","0.00"
"10:19:59","28.5","18.2","64.9","30.63","138","3.3","7","0.00","0.00"
"10:24:56","28.6","18.5","65.5","30.63","118","4.4","10.4","0.00","0.00"
"10:29:57","28.9","19","66.2","30.63","126","3.4","11.5","0.00","0.00"
"10:34:57","29.3","19.5","66.8","30.62","176","3.5","11.5","0.00","0.00"
"10:39:59","29.3","19.5","66.3","30.62","185","3.8","8","0.00","0.00"
"10:44:56","29.5","19.8","66.7","30.62","196","3.7","9.2","0.00","0.00"
"10:49:57","29.8","19.5","65","30.62","171","3.2","7","0.00","0.00"
"10:54:58","30","19.3","64","30.62","183","3.8","9.2","0.00","0.00"
"10:59:56","30","19.3","64.1","30.62","104","3.1","6","0.00","0.00"
"11:04:56","30.2","19.2","63.4","30.62","111","3.9","8.1","0.00","0.00"
"11:09:58","30.5","19.5","63.1","30.62","117","2.4","5","0.00","0.00"
"11:14:56","30.9","19.7","62.7","30.62","173","3.9","10.4","0.00","0.00"
"11:19:58","30.9","19","60.9","30.62","153","2.3","6.9","0.00","0.00"
"11:24:58","31.2","19.7","62","30.62","199","3.5","9.2","0.00","0.00"
"11:29:58","31.4","20.4","63.3","30.62","210","3.4","9.2","0.00","0.00"
"11:34:58","31.7","19.8","61","30.61","136","4","11.5","0.00","0.00"
"11:39:57","31.9","19.3","59.4","30.61","155","2.1","5","0.00","0.00"
"11:44:57","32.1","19.6","59.5","30.61","139","1.7","7","0.00","0.00"
"11:49:56","32.2","19.5","59.1","30.60","109","2.6","6","0.00","0.00"
"11:54:59","32.2","19.5","59","30.60","174","2.3","5","0.00","0.00"
"11:59:58","32.3","19.5","58.8","30.60","108","3.5","7","0.00","0.00"
"12:04:59","32.5","19.2","57.7","30.59","108","2.7","6","0.00","0.00"
"12:09:58","32.8","19.5","57.7","30.59","130","2.8","6","0.00","0.00"
"12:14:57","32.9","19.5","57.5","30.59","144","2.1","5","0.00","0.00"
"12:19:56","33.1","19.1","55.9","30.57","159","0.4","3.5","0.00","0.00"
"12:24:56","33.5","19.7","56.6","30.57","172","1.2","4","0.00","0.00"
"12:29:59","33.9","20.4","57.5","30.57","162","2","5","0.00","0.00"
"12:34:58","34.1","19.8","55.7","30.56","115","1.8","4","0.00","0.00"
"12:39:57","34.3","21","57.9","30.56","97","1.4","4","0.00","0.00"
"12:44:57","34.8","21.1","57.1","30.56","10","1","4","0.00","0.00"
"12:49:56","35.2","20.9","55.7","30.55","79","2.2","5","0.00","0.00"
"12:54:59","35.3","20.5","54.5","30.55","175","1.8","4.6","0.00","0.00"
"12:59:59","35.8","22.5","58.1","30.55","196","0.9","3.5","0.00","0.00"
"13:04:56","36.2","21.4","54.6","30.54","79","2.2","6","0.00","0.00"
"13:09:58","35.7","20.5","53.5","30.54","74","2.9","7","0.00","0.00"
"13:14:59","35.4","20.1","53.5","30.54","88","2.7","6","0.00","0.00"
"13:19:58","35.2","19.6","52.6","30.53","149","3","6","0.00","0.00"
"13:24:57","35.6","20.4","53.7","30.53","201","3.8","7","0.00","0.00"
"13:29:56","35.7","20","52.5","30.53","182","2.7","6","0.00","0.00"
"13:34:56","35.9","20.9","54.2","30.53","155","2.6","5.8","0.00","0.00"
"13:39:59","36.4","20.7","52.6","30.53","193","1.9","4.6","0.00","0.00"
"13:44:58","36.8","21.2","53","30.53","154","2.2","4","0.00","0.00"
"13:49:58","36.9","20.7","51.7","30.53","113","3","6","0.00","0.00"
"13:54:57","36.9","20.1","50.3","30.53","173","3.1","7","0.00","0.00"
"13:59:56","37.1","21.4","52.6","30.53","154","2.7","6","0.00","0.00"
"14:04:58","37.3","20.3","49.8","30.52","154","3.3","7","0.00","0.00"
"14:09:56","37.3","20.3","50","30.52","105","2.2","7","0.00","0.00"
"14:14:56","37.3","20.5","50.2","30.52","170","3.7","7","0.00","0.00"
"14:19:56","37.5","20","49","30.51","133","1.6","5","0.00","0.00"
"14:24:59","37.2","19.4","48.2","30.51","134","2.3","5","0.00","0.00"
"14:29:58","37.4","20.5","50.1","30.51","193","3.9","7","0.00","0.00"
"14:34:58","37.8","19.7","47.6","30.51","142","2.3","6","0.00","0.00"
"14:39:58","38","20.4","48.7","30.51","194","3","9.2","0.00","0.00"
"14:44:57","38.2","20.1","47.7","30.51","199","4.2","9.2","0.00","0.00"
"14:49:57","38.2","19.6","46.8","30.50","148","3.3","7","0.00","0.00"
"14:54:56","38.2","19","45.6","30.50","127","2.7","7","0.00","0.00"
"14:59:56","38","18.7","45.2","30.50","120","4.6","8.1","0.00","0.00"
"15:04:57","37.6","18.2","45.1","30.50","136","2.5","6","0.00","0.00"
"15:09:59","37.7","18.7","45.9","30.50","155","3","6","0.00","0.00"
"15:14:59","38.3","19.2","45.9","30.50","170","2","6","0.00","0.00"
"15:19:59","38.7","19.1","44.9","30.49","159","2.1","6","0.00","0.00"
"15:24:59","38.6","18.2","43.5","30.49","123","4.1","10.4","0.00","0.00"
"15:29:58","38","18.1","44.3","30.49","107","2.6","8.1","0.00","0.00"
"15:34:58","37.8","18.2","44.8","30.49","158","3.6","8","0.00","0.00"
"15:39:58","37.9","18.5","45.1","30.49","186","3.7","8.1","0.00","0.00"
"15:44:57","38.1","17.9","43.7","30.49","152","3.4","6","0.00","0.00"
"15:49:57","38.1","18.4","44.5","30.49","150","2.6","7","0.00","0.00"
"15:54:56","38.4","17.9","43.2","30.49","107","2.5","6","0.00","0.00"
"15:59:56","38.3","17.7","42.9","30.49","171","2.8","6","0.00","0.00"
"16:04:58","38.2","17.7","43","30.48","169","2.7","7","0.00","0.00"
"16:09:56","38.2","17.6","42.9","30.48","121","2.7","6","0.00","0.00"
"16:14:56","37.9","17.2","42.5","30.48","144","3.1","6","0.00","0.00"
"16:19:56","37.7","17.6","43.7","30.48","140","1.8","5","0.00","0.00"
"16:24:56","37.8","17","42.5","30.48","144","2.4","5","0.00","0.00"
"16:29:59","37.6","17.1","43","30.48","176","3","7","0.00","0.00"
"16:34:59","37.4","16.9","43","30.48","162","3.1","6","0.00","0.00"
"16:39:59","37.3","16.8","43","30.48","155","3.4","6","0.00","0.00"
"16:44:59","37.1","16.6","43","30.48","114","3.5","7","0.00","0.00"
"16:49:59","36.8","16.4","43","30.48","155","2.4","5","0.00","0.00"
"16:54:59","37","16.6","43.2","30.48","150","2.2","5","0.00","0.00"
"16:59:58","37","16.3","42.7","30.48","148","2","5","0.00","0.00"
"17:04:56","36.8","16","42.3","30.48","131","2.1","5","0.00","0.00"
"17:09:58","36.3","15.5","42.1","30.48","128","2.5","6","0.00","0.00"
"17:14:59","35.8","15","42.2","30.48","150","2.1","7","0.00","0.00"
"17:19:55","35.4","14.8","42.5","30.48","133","1.5","6.9","0.00","0.00"
"17:24:59","35","14.5","42.6","30.48","142","1.9","3.5","0.00","0.00"
"17:29:56","34.6","14.9","43.9","30.48","148","0.8","3.5","0.00","0.00"
"17:34:56","34.4","14.7","44","30.48","152","1.7","3.5","0.00","0.00"
"17:39:56","34.1","14.5","44.3","30.48","144","1.7","4","0.00","0.00"
"17:44:56","33.9","15","45.5","30.48","144","1.3","3.5","0.00","0.00"
"17:49:57","33.6","14.9","45.7","30.48","140","1","3.5","0.00","0.00"
"17:54:57","33.5","15.2","46.6","30.48","143","1.4","3.5","0.00","0.00"
"17:59:57","33.2","15.1","47","30.48","143","0.9","3.5","0.00","0.00"
"18:04:59","33","14.9","47","30.48","144","1","2.3","0.00","0.00"
"18:09:57","32.9","14.8","47","30.48","144","0.9","3.5","0.00","0.00"
"18:14:58","32.7","15.1","48","30.48","145","0.5","2.3","0.00","0.00"
"18:19:58","32.6","15","48","30.47","145","0.9","3.5","0.00","0.00"
"18:24:58","32.4","15.3","49","30.47","146","0.3","2.3","0.00","0.00"
"18:29:58","32.2","15.1","48.8","30.48","145","0.5","2.3","0.00","0.00"
"18:34:58","32","15","49","30.48","144","0.2","2.3","0.00","0.00"
"18:39:58","31.9","14.9","49","30.48","144","0.3","2.3","0.00","0.00"
"18:44:58","31.8","14.8","49","30.48","144","0.6","3","0.00","0.00"
"18:49:58","31.7","14.7","49.2","30.48","145","0.5","3.5","0.00","0.00"
"18:54:58","31.5","15","50","30.48","145","0","0","0.00","0.00"
"18:59:58","31.4","15.2","50.8","30.48","146","0.4","2.3","0.00","0.00"
"19:04:40","31.1","15.1","51","30.48","146","1","2.3","0.00","0.00"
"21:09:18","26.9","15","60.4","30.48","137","0.7","3.5","0.00","0.00"
"21:14:59","26.8","15.7","62.7","30.48","137","0.5","2.3","0.00","0.00"
"21:19:51","26.7","16.7","65.7","30.48","137","0","0","0.00","0.00"
"21:24:59","26.5","16.8","66.6","30.48","137","1","2.3","0.00","0.00"
"21:49:59","25","17.5","72.8","30.47","137","0","1.2","0.00","0.00"
"21:52:46","24.8","17.4","73","30.47","137","0","0","0.00","0.00"
"22:24:56","23.8","17.6","77","30.48","137","0","0","0.00","0.00"
"23:44:57","22.3","17.1","80","30.45","137","0","0","0.00","0.00"
"23:49:33","22.3","17.3","80.6","30.45","137","0.5","2.3","0.00","0.00"
"23:53:38","22.5","17.7","81.5","30.45","137","0","2.3","0.00","0.00"
